Location: Invercargill
(46.4000°S, 168.3500°E)
Time: 11:18:35
(UTC+12:00)

Nadezhda 4 Rocket - Pass Details

Date: 14 May 2021
Orbit: 948 x 993 km, 82.9° (Epoch: 15 June)

Event Time Altitude Azimuth Distance (km) Brightness Sun altitude
Rises 17:46:47 0° 8° (N) 3,615 7.2 -4.2°
Reaches altitude 10° 17:49:17 10° 12° (NNE) 2,680 6.5 -4.6°
Maximum altitude 17:55:15 56° 88° (E) 1,134 4.1 -5.6°
Drops below altitude 10° 18:01:20 10° 164° (SSE) 2,733 6.0 -6.6°
Sets 18:03:55 0° 167° (SSE) 3,692 6.7 -7.0°
